Regional Weather Roundup
Issued by NWS

Home | Current Version | Previous Version | Graphics & Text | Print | Product List | Glossary On
Versions: 1 2 3 4 5 6 7 8 9 10 11 12 13 14 15 16 17 18 19 20 21 22 23 24 25 26 27 28 29 30 31 32 33 34 35 36 37 38 39 40 41 42 43 44 45 46 47 48 49 50
000
ASUS43 KLMK 160602
RWRKY
KENTUCKY REGIONAL WEATHER ROUNDUP
NATIONAL WEATHER SERVICE LOUISVILLE KY
200 AM EDT TUE SEP 16 2014

NOTE "FAIR" INDICATES FEW OR NO CLOUDS BELOW 12,000 FEET
WITH NO SIGNIFICANT WEATHER AND/OR OBSTRUCTIONS TO VISIBILITY.

KYZ001>023-026-027-061>063-070>075-160700-
WESTERN AND SOUTH CENTRAL KENTUCKY

CITY           SKY/WX    TMP DP  RH WIND       PRES   REMARKS
PADUCAH        CLOUDY    70  64  81 W7        30.10S
HENDERSON      CLOUDY    66  63  88 NW12      30.10R
OWENSBORO      CLOUDY    69  63  81 W8        30.08S
HOPKINSVILLE   CLOUDY    65  65 100 SW6       30.11S
BOWLING GREEN  CLOUDY    68  61  78 SW5       30.10S
GLASGOW        CLOUDY    65  64  97 CALM      30.10S
$$

KYZ024-025-028>034-038-045-046-053-160700-
NORTH CENTRAL KENTUCKY

CITY           SKY/WX    TMP DP  RH WIND       PRES   REMARKS
LOUISVILLE/SDF CLOUDY    67  61  81 NE5       30.08S
LOUISVILLE/LOU CLOUDY    64  61  90 NE3       30.08S
FORT KNOX      CLOUDY    65  61  87 S5        30.08S
$$

KYZ035>037-039>044-047>052-055>060-089>105-160700-
NORTHEAST KENTUCKY

CITY           SKY/WX    TMP DP  RH WIND       PRES   REMARKS
LEXINGTON      CLOUDY    65  61  87 S7        30.09S
COVINGTON      DRIZZLE   59  56  89 NE7       30.10S
FRANKFORT      CLOUDY    62  59  90 MISG      30.09R
$$

KYZ054-064>069-076>088-106>120-160700-
SOUTHEAST KENTUCKY

CITY           SKY/WX    TMP DP  RH WIND       PRES   REMARKS
JACKSON        CLOUDY    63  60  90 S3        30.10S
LONDON         PTCLDY    63  60  90 CALM      30.11F
SOMERSET       NOT AVBL
MIDDLESBORO    CLOUDY    62  62  99 CALM      30.13F
MONTICELLO     MOCLDY    65  63  93 CALM      30.13S
$$



USA.gov is the U.S. government's official web portal to all federal, state and local government web resources and services.